Miscellaneous Local Product
Issued by NWS Hastings, NE

Home | Current Version | Previous Version | Graphics & Text | Print | Product List | Glossary On
Versions: 1 2 3 4 5 6 7 8 9 10 11 12 13 14 15 16 17 18 19 20 21 22 23 24 25 26 27 28 29 30 31 32 33 34 35 36 37 38 39 40 41 42 43 44 45 46 47 48 49 50
000
AXUS43 KGID 221710
MISGRI

GID CWA HOURLY WEATHER ROUNDUP
NATIONAL WEATHER SERVICE HASTINGS NE
1200 PM CDT MON SEP 22 2014

NOTE: "FAIR" INDICATES FEW OR NO CLOUDS BELOW 12,000 FEET WITH NO
SIGNIFICANT WEATHER AND/OR OBSTRUCTIONS TO VISIBILITY.

...SOUTH CENTRAL NEBRASKA...

CITY           SKY/WX    TMP DP  RH WIND       PRES   REMARKS
GRAND ISLAND   SUNNY     69  47  45 S12       30.29F
HASTINGS       MOSUNNY   67  45  45 S12       30.29F
KEARNEY        PTSUNNY   66  48  52 SE15      30.29F
ORD            MOSUNNY   68  48  48 S14       30.25F
YORK           SUNNY     68  50  52 S9        30.30F
AURORA         SUNNY     68  45  42 SW9       30.30S
LEXINGTON      PTSUNNY   69  49  49 S17       30.27F
HOLDREGE       CLOUDY    67  46  46 S15       30.28F
HEBRON         SUNNY     70  44  39 S8        30.31F

...NEBRASKA PANHANDLE...

CITY           SKY/WX    TMP DP  RH WIND       PRES   REMARKS
CHADRON        PTSUNNY   71  48  43 S18       30.06F
ALLIANCE       CLOUDY    66  46  48 S20       30.14F
SCOTTSBLUFF    LGT RAIN  58  53  84 SE8       30.13F
SIDNEY         CLOUDY    70  49  47 S24G30    30.18F

...WESTERN AND NORTH CENTRAL NEBRASKA...

CITY           SKY/WX    TMP DP  RH WIND       PRES   REMARKS
VALENTINE      PTSUNNY   69  43  38 S21G26    30.17F
AINSWORTH      PTSUNNY   67  44  42 S16       30.20F
ONEILL         SUNNY     70  50  48 S14       30.25F
BROKEN BOW     CLOUDY    66  46  48 S17G28    30.26F
IMPERIAL       CLOUDY    67  42  40 S21       30.23S
NORTH PLATTE   PTSUNNY   69  46  43 SE13      30.22F
MCCOOK         LGT RAIN  72  42  34 S22       30.25F

...EASTERN NEBRASKA...

CITY           SKY/WX    TMP DP  RH WIND       PRES   REMARKS
NORFOLK        SUNNY     69  47  45 S13       30.28S
SO SIOUX CITY  SUNNY     68  51  54 VRB6      30.29F
TEKAMAH        SUNNY     71  49  45 S10       30.29F
COLUMBUS       SUNNY     68  48  49 SW8       30.30F
ALBION         SUNNY     68  46  44 S9G17     30.28F
OMAHA EPPLEY   MOSUNNY   67  50  54 S6        30.31F
OFFUTT AFB     SUNNY     69  55  61 S3        30.31F
MILLARD        SUNNY     68  51  53 S6        30.30F
LINCOLN        SUNNY     69  49  48 S9        30.31F
NEBRASKA CITY    N/A     67  44  42 CALM      30.31F
BEATRICE       SUNNY     69  46  43 S9        30.31S
FALLS CITY     SUNNY     69  50  50 SE5       30.30F

...NORTHERN KANSAS...

CITY           SKY/WX    TMP DP  RH WIND       PRES   REMARKS
GOODLAND       MOSUNNY   73  44  35 S26G37    30.24F
HILL CITY      LGT RAIN  72  45  37 S12G22    30.29F
NORTON         SUNNY     73  39  29 S14G22    30.27F
SMITH CENTER   SUNNY     70  46  43 S15       30.30F
BELOIT         SUNNY     72  48  43 S8        30.30F
HAYS           SUNNY     72  48  43 S10G21    30.31F
RUSSELL        MOSUNNY   70  49  47 S15       30.30F
CONCORDIA      MOSUNNY   68  51  54 S9        30.32F
SALINA         SUNNY     71  48  43 S6        30.32F
TOPEKA         SUNNY     70  50  49 S5        30.32F



USA.gov is the U.S. government's official web portal to all federal, state and local government web resources and services.